| time (UTC) | temp C | wind direction | speed KPH | gust KPH | rain 1hr cm | rain 24hr cm | rain mn cm | humidity % | barometer mb |
| 20260507155518 | 16 | 203 | 8.0 | 14.5 | 0.00 | 0.00 | 0.00 | 53 | 1015.5 |
| 20260507154520 | 16 | 203 | 6.4 | 11.3 | 0.00 | 0.00 | 0.00 | 52 | 1015.7 |
| 20260507153520 | 16 | 180 | 9.7 | 19.3 | 0.00 | 0.00 | 0.00 | 49 | 1015.6 |
| 20260507152519 | 16 | 203 | 9.7 | 22.5 | 0.00 | 0.00 | 0.00 | 52 | 1015.6 |
| 20260507151518 | 16 | 203 | 9.7 | 16.1 | 0.00 | 0.00 | 0.00 | 50 | 1015.7 |
| 20260507150520 | 16 | 203 | 11.3 | 22.5 | 0.00 | 0.00 | 0.00 | 49 | 1015.7 |
| 20260507145522 | 16 | 203 | 12.9 | 20.9 | 0.00 | 0.00 | 0.00 | 47 | 1015.8 |
| 20260507144520 | 16 | 203 | 12.9 | 22.5 | 0.00 | 0.00 | 0.00 | 45 | 1015.7 |
| 20260507143544 | 17 | 203 | 14.5 | 27.4 | 0.00 | 0.00 | 0.00 | 46 | 1015.8 |
| 20260507142528 | 17 | 203 | 11.3 | 19.3 | 0.00 | 0.00 | 0.00 | 51 | 1015.9 |
| 20260507141520 | 16 | 203 | 9.7 | 19.3 | 0.00 | 0.00 | 0.00 | 51 | 1015.9 |
| 20260507140525 | 16 | 203 | 9.7 | 16.1 | 0.00 | 0.00 | 0.00 | 50 | 1016.2 |
| 20260507135539 | 16 | 180 | 6.4 | 12.9 | 0.00 | 0.00 | 0.00 | 54 | 1016.0 |
| 20260507134519 | 16 | 203 | 9.7 | 19.3 | 0.00 | 0.00 | 0.00 | 52 | 1016.1 |
| 20260507133520 | 15 | 180 | 6.4 | 11.3 | 0.00 | 0.00 | 0.00 | 59 | 1015.9 |
| 20260507132540 | 15 | 203 | 6.4 | 14.5 | 0.00 | 0.00 | 0.00 | 58 | 1016.0 |
| 20260507131545 | 15 | 203 | 8.0 | 16.1 | 0.00 | 0.00 | 0.00 | 57 | 1016.1 |
| 20260507130520 | 15 | 203 | 8.0 | 16.1 | 0.00 | 0.00 | 0.00 | 57 | 1016.2 |
| 20260507125519 | 15 | 203 | 9.7 | 17.7 | 0.00 | 0.00 | 0.00 | 58 | 1016.2 |
| 20260507124541 | 15 | 203 | 9.7 | 17.7 | 0.00 | 0.00 | 0.00 | 56 | 1016.2 |
| 20260507123520 | 15 | 203 | 11.3 | 20.9 | 0.00 | 0.00 | 0.00 | 55 | 1016.2 |
| 20260507122519 | 15 | 180 | 9.7 | 20.9 | 0.00 | 0.00 | 0.00 | 56 | 1016.3 |
| 20260507121518 | 15 | 203 | 9.7 | 20.9 | 0.00 | 0.00 | 0.00 | 54 | 1016.3 |
| 20260507120520 | 15 | 180 | 11.3 | 20.9 | 0.00 | 0.00 | 0.00 | 56 | 1016.1 |
| 20260507115519 | 15 | 203 | 9.7 | 17.7 | 0.00 | 0.00 | 0.00 | 60 | 1016.1 |
| 20260507114520 | 15 | 203 | 8.0 | 17.7 | 0.00 | 0.00 | 0.00 | 63 | 1016.0 |
| 20260507113520 | 15 | 180 | 8.0 | 16.1 | 0.00 | 0.00 | 0.00 | 64 | 1016.2 |
| 20260507112519 | 14 | 203 | 9.7 | 19.3 | 0.00 | 0.00 | 0.00 | 63 | 1016.2 |
| 20260507111519 | 15 | 180 | 9.7 | 20.9 | 0.00 | 0.00 | 0.00 | 62 | 1016.2 |
| 20260507110521 | 15 | 180 | 8.0 | 19.3 | 0.00 | 0.00 | 0.00 | 63 | 1016.3 |
| 20260507105519 | 15 | 203 | 8.0 | 17.7 | 0.00 | 0.00 | 0.00 | 64 | 1016.4 |
| 20260507104540 | 15 | 203 | 8.0 | 16.1 | 0.00 | 0.00 | 0.00 | 66 | 1016.4 |
| 20260507103520 | 14 | 203 | 8.0 | 17.7 | 0.00 | 0.00 | 0.00 | 66 | 1016.3 |
| 20260507102519 | 14 | 180 | 9.7 | 17.7 | 0.00 | 0.00 | 0.00 | 65 | 1016.4 |
| 20260507101519 | 15 | 180 | 8.0 | 19.3 | 0.00 | 0.00 | 0.00 | 66 | 1016.5 |
| 20260507100519 | 14 | 180 | 8.0 | 16.1 | 0.00 | 0.00 | 0.00 | 68 | 1016.3 |
| 20260507095538 | 13 | 203 | 9.7 | 16.1 | 0.00 | 0.00 | 0.00 | 69 | 1016.2 |
| 20260507094519 | 14 | 180 | 6.4 | 14.5 | 0.00 | 0.00 | 0.00 | 69 | 1016.2 |
| 20260507093538 | 14 | 180 | 4.8 | 16.1 | 0.00 | 0.00 | 0.00 | 68 | 1016.3 |
| 20260507092519 | 14 | 203 | 4.8 | 11.3 | 0.00 | 0.00 | 0.00 | 68 | 1016.1 |
| 20260507091539 | 14 | 203 | 6.4 | 16.1 | 0.00 | 0.00 | 0.00 | 67 | 1016.3 |
| 20260507090518 | 13 | 180 | 6.4 | 12.9 | 0.00 | 0.00 | 0.00 | 70 | 1016.4 |
| 20260507085519 | 13 | 180 | 3.2 | 6.4 | 0.00 | 0.00 | 0.00 | 72 | 1016.5 |
| 20260507084519 | 13 | 113 | 4.8 | 12.9 | 0.00 | 0.00 | 0.00 | 71 | 1016.2 |
| 20260507083519 | 13 | 180 | 4.8 | 8.0 | 0.00 | 0.00 | 0.00 | 74 | 1016.4 |
| 20260507082519 | 12 | 203 | 4.8 | 8.0 | 0.00 | 0.00 | 0.00 | 76 | 1016.1 |
| 20260507081539 | 12 | 180 | 3.2 | 8.0 | 0.00 | 0.00 | 0.00 | 76 | 1016.4 |
| 20260507080539 | 12 | 113 | 1.6 | 6.4 | 0.00 | 0.00 | 0.00 | 78 | 1016.3 |
| 20260507075539 | 11 | 113 | 3.2 | 4.8 | 0.00 | 0.00 | 0.00 | 78 | 1016.3 |
| 20260507074519 | 11 | 68 | 3.2 | 6.4 | 0.00 | 0.00 | 0.00 | 79 | 1016.1 |
| 20260507073520 | 11 | 68 | 1.6 | 8.0 | 0.00 | 0.00 | 0.00 | 79 | 1016.0 |
| 20260507072539 | 10 | 68 | 4.8 | 6.4 | 0.00 | 0.00 | 0.00 | 79 | 1016.0 |
| 20260507071519 | 10 | 45 | 1.6 | 3.2 | 0.00 | 0.00 | 0.00 | 80 | 1016.0 |
| 20260507070524 | 10 | 45 | 1.6 | 4.8 | 0.00 | 0.00 | 0.00 | 81 | 1015.9 |
| 20260507065519 | 10 | 68 | 3.2 | 6.4 | 0.00 | 0.00 | 0.00 | 81 | 1015.8 |
| 20260507064520 | 9 | 68 | 3.2 | 6.4 | 0.00 | 0.00 | 0.00 | 82 | 1015.7 |
| 20260507063520 | 8 | 68 | 3.2 | 4.8 | 0.00 | 0.00 | 0.00 | 82 | 1015.7 |
| 20260507062519 | 8 | 45 | 1.6 | 4.8 | 0.00 | 0.00 | 0.00 | 83 | 1015.6 |
| 20260507061519 | 8 | 45 | 1.6 | 4.8 | 0.00 | 0.00 | 0.00 | 84 | 1015.6 |
| 20260507060534 | 8 | 45 | 1.6 | 3.2 | 0.00 | 0.00 | 0.00 | 84 | 1015.8 |
| 20260507055520 | 7 | 0.0 | 0.0 | 0.00 | 0.00 | 0.00 | 85 | 1015.8 | |
| 20260507054520 | 7 | 0.0 | 0.0 | 0.00 | 0.00 | 0.00 | 85 | 1015.7 | |
| 20260507053519 | 7 | 0.0 | 0.0 | 0.00 | 0.00 | 0.00 | 85 | 1015.7 | |
| 20260507052519 | 7 | 0.0 | 0.0 | 0.00 | 0.00 | 0.00 | 84 | 1015.5 | |
| 20260507051539 | 7 | 0.0 | 0.0 | 0.00 | 0.00 | 0.00 | 84 | 1015.5 | |
| 20260507050539 | 7 | 0.0 | 0.0 | 0.00 | 0.00 | 0.00 | 83 | 1015.5 | |
| 20260507045519 | 7 | 0.0 | 3.2 | 0.00 | 0.00 | 0.00 | 83 | 1015.5 | |
| 20260507044603 | 7 | 45 | 1.6 | 3.2 | 0.00 | 0.00 | 0.00 | 83 | 1015.3 |
| 20260507043520 | 7 | 68 | 3.2 | 6.4 | 0.00 | 0.00 | 0.00 | 83 | 1015.2 |
| 20260507042539 | 7 | 68 | 3.2 | 6.4 | 0.00 | 0.00 | 0.00 | 82 | 1015.2 |
| 20260507041520 | 8 | 68 | 1.6 | 6.4 | 0.00 | 0.00 | 0.00 | 82 | 1015.2 |
| 20260507040519 | 8 | 90 | 1.6 | 6.4 | 0.00 | 0.00 | 0.00 | 82 | 1015.2 |
| 20260507035517 | 8 | 90 | 3.2 | 6.4 | 0.00 | 0.00 | 0.00 | 81 | 1015.2 |
| 20260507034519 | 8 | 90 | 4.8 | 8.0 | 0.00 | 0.00 | 0.00 | 81 | 1015.1 |
| 20260507033519 | 8 | 90 | 4.8 | 8.0 | 0.00 | 0.00 | 0.00 | 81 | 1015.1 |
| 20260507032518 | 8 | 113 | 3.2 | 9.7 | 0.00 | 0.00 | 0.00 | 81 | 1015.1 |
| 20260507031524 | 8 | 90 | 4.8 | 8.0 | 0.00 | 0.00 | 0.00 | 81 | 1015.1 |
| 20260507030538 | 8 | 68 | 4.8 | 9.7 | 0.00 | 0.00 | 0.00 | 82 | 1015.1 |
| 20260507025519 | 8 | 90 | 3.2 | 4.8 | 0.00 | 0.00 | 0.00 | 82 | 1015.3 |
| 20260507024518 | 8 | 68 | 4.8 | 8.0 | 0.00 | 0.00 | 0.00 | 82 | 1015.3 |
| 20260507023519 | 8 | 90 | 3.2 | 4.8 | 0.00 | 0.00 | 0.00 | 83 | 1015.3 |
| 20260507022633 | 8 | 90 | 1.6 | 6.4 | 0.00 | 0.00 | 0.00 | 83 | 1015.3 |
| 20260507021519 | 9 | 90 | 4.8 | 9.7 | 0.00 | 0.00 | 0.00 | 83 | 1015.3 |
| 20260507020518 | 9 | 90 | 1.6 | 6.4 | 0.00 | 0.00 | 0.00 | 83 | 1015.3 |
| 20260507015518 | 9 | 90 | 3.2 | 4.8 | 0.00 | 0.00 | 0.00 | 84 | 1015.1 |
| 20260507014537 | 9 | 90 | 3.2 | 6.4 | 0.00 | 0.00 | 0.00 | 83 | 1015.1 |
| 20260507013518 | 9 | 90 | 3.2 | 6.4 | 0.00 | 0.00 | 0.00 | 83 | 1015.2 |
| 20260507012519 | 9 | 90 | 3.2 | 4.8 | 0.00 | 0.00 | 0.00 | 83 | 1015.0 |
| 20260507011519 | 9 | 90 | 4.8 | 8.0 | 0.00 | 0.00 | 0.00 | 83 | 1015.0 |
| 20260507010523 | 9 | 203 | 3.2 | 4.8 | 0.00 | 0.00 | 0.00 | 82 | 1015.1 |
| 20260507005520 | 9 | 203 | 3.2 | 4.8 | 0.00 | 0.00 | 0.00 | 82 | 1015.0 |
| 20260507004518 | 10 | 203 | 1.6 | 3.2 | 0.00 | 0.00 | 0.00 | 82 | 1015.0 |
| 20260507003541 | 10 | 0.0 | 3.2 | 0.00 | 0.00 | 0.00 | 81 | 1015.0 | |
| 20260507002522 | 10 | 225 | 3.2 | 4.8 | 0.00 | 0.00 | 0.00 | 81 | 1015.2 |
| 20260507001517 | 10 | 0.0 | 4.8 | 0.00 | 0.00 | 0.00 | 81 | 1015.2 | |
| 20260507000523 | 10 | 0.0 | 0.0 | 0.00 | 0.00 | 0.00 | 80 | 1015.2 | |
| 20260506235538 | 10 | 0.0 | 3.2 | 0.00 | 0.00 | 0.00 | 80 | 1015.2 | |
| 20260506234519 | 10 | 0.0 | 1.6 | 0.00 | 0.00 | 0.00 | 80 | 1015.2 | |
| 20260506233518 | 10 | 0.0 | 0.0 | 0.00 | 0.00 | 0.00 | 81 | 1015.3 | |
| 20260506232518 | 10 | 0.0 | 3.2 | 0.00 | 0.00 | 0.00 | 79 | 1015.4 | |
| 20260506231518 | 10 | 0.0 | 3.2 | 0.00 | 0.00 | 0.00 | 79 | 1015.3 | |
| 20260506230519 | 10 | 0.0 | 3.2 | 0.00 | 0.00 | 0.00 | 79 | 1015.3 | |
| 20260506225519 | 10 | 0.0 | 3.2 | 0.00 | 0.00 | 0.00 | 79 | 1015.3 | |
| 20260506224518 | 10 | 0.0 | 1.6 | 0.00 | 0.00 | 0.00 | 79 | 1015.3 | |
| 20260506223524 | 10 | 0.0 | 0.0 | 0.00 | 0.00 | 0.00 | 79 | 1015.4 | |
| 20260506222518 | 10 | 0.0 | 0.0 | 0.00 | 0.00 | 0.00 | 77 | 1015.3 | |
| 20260506221518 | 10 | 0.0 | 3.2 | 0.00 | 0.00 | 0.00 | 77 | 1015.0 | |
| 20260506220518 | 10 | 0.0 | 1.6 | 0.00 | 0.00 | 0.00 | 77 | 1015.0 | |
| 20260506215518 | 10 | 0.0 | 0.0 | 0.00 | 0.00 | 0.00 | 76 | 1015.1 | |
| 20260506214538 | 11 | 225 | 1.6 | 3.2 | 0.00 | 0.00 | 0.00 | 75 | 1015.0 |
| 20260506213526 | 11 | 225 | 1.6 | 3.2 | 0.00 | 0.00 | 0.00 | 74 | 1015.3 |
| 20260506212538 | 11 | 225 | 1.6 | 3.2 | 0.00 | 0.00 | 0.00 | 74 | 1015.3 |
| 20260506211523 | 11 | 0.0 | 1.6 | 0.00 | 0.00 | 0.00 | 73 | 1015.1 | |
| 20260506210521 | 11 | 225 | 1.6 | 4.8 | 0.00 | 0.00 | 0.00 | 72 | 1015.1 |
| 20260506205524 | 11 | 248 | 3.2 | 4.8 | 0.00 | 0.00 | 0.00 | 72 | 1015.1 |
| 20260506204519 | 11 | 248 | 4.8 | 9.7 | 0.00 | 0.00 | 0.00 | 71 | 1014.8 |
| 20260506203528 | 11 | 225 | 1.6 | 6.4 | 0.00 | 0.00 | 0.00 | 73 | 1014.8 |
| 20260506202538 | 11 | 90 | 1.6 | 4.8 | 0.00 | 0.00 | 0.00 | 72 | 1014.8 |
| 20260506201546 | 12 | 0.0 | 1.6 | 0.00 | 0.00 | 0.00 | 71 | 1014.6 | |
| 20260506195538 | 12 | 0.0 | 1.6 | 0.00 | 0.00 | 0.00 | 69 | 1014.8 | |
| 20260506194539 | 12 | 0.0 | 1.6 | 0.00 | 0.00 | 0.00 | 69 | 1014.6 | |
| 20260506193517 | 12 | 0.0 | 0.0 | 0.00 | 0.00 | 0.00 | 68 | 1014.5 | |
| 20260506192518 | 13 | 0.0 | 1.6 | 0.00 | 0.00 | 0.00 | 66 | 1014.5 | |
| 20260506191518 | 13 | 0.0 | 1.6 | 0.00 | 0.00 | 0.00 | 65 | 1014.5 | |
| 20260506190520 | 13 | 0.0 | 1.6 | 0.00 | 0.00 | 0.00 | 64 | 1014.4 | |
| 20260506185518 | 13 | 0.0 | 1.6 | 0.00 | 0.00 | 0.00 | 62 | 1014.6 | |
| 20260506184518 | 13 | 90 | 1.6 | 3.2 | 0.00 | 0.00 | 0.00 | 57 | 1014.2 |
| 20260506183539 | 13 | 90 | 3.2 | 4.8 | 0.00 | 0.00 | 0.00 | 55 | 1014.4 |
| 20260506182518 | 13 | 90 | 3.2 | 6.4 | 0.00 | 0.00 | 0.00 | 55 | 1014.4 |
| 20260506181538 | 14 | 90 | 1.6 | 4.8 | 0.00 | 0.00 | 0.00 | 56 | 1014.4 |
| 20260506180518 | 14 | 90 | 1.6 | 3.2 | 0.00 | 0.00 | 0.00 | 55 | 1014.5 |
| 20260506175543 | 14 | 90 | 1.6 | 3.2 | 0.00 | 0.00 | 0.00 | 55 | 1014.3 |
| 20260506174520 | 14 | 68 | 1.6 | 4.8 | 0.00 | 0.00 | 0.00 | 56 | 1014.3 |
| 20260506173646 | 14 | 90 | 1.6 | 6.4 | 0.00 | 0.00 | 0.00 | 55 | 1014.2 |
| 20260506172520 | 14 | 68 | 3.2 | 4.8 | 0.00 | 0.00 | 0.00 | 53 | 1014.4 |
| 20260506171529 | 15 | 113 | 1.6 | 6.4 | 0.00 | 0.00 | 0.00 | 51 | 1014.4 |
| 20260506170520 | 15 | 90 | 1.6 | 8.0 | 0.00 | 0.00 | 0.00 | 53 | 1014.2 |
| 20260506165540 | 15 | 90 | 3.2 | 8.0 | 0.00 | 0.00 | 0.00 | 53 | 1014.3 |
| 20260506164520 | 15 | 90 | 4.8 | 9.7 | 0.00 | 0.00 | 0.00 | 54 | 1014.1 |
| 20260506163540 | 15 | 113 | 3.2 | 8.0 | 0.00 | 0.00 | 0.00 | 55 | 1014.1 |
| 20260506162519 | 15 | 113 | 3.2 | 6.4 | 0.00 | 0.00 | 0.00 | 54 | 1014.0 |
| 20260506161518 | 15 | 135 | 3.2 | 9.7 | 0.00 | 0.00 | 0.00 | 51 | 1014.0 |
| 20260506160520 | 15 | 113 | 3.2 | 6.4 | 0.00 | 0.00 | 0.00 | 53 | 1014.1 |